| time (UTC) | temp C | wind direction | speed KPH | gust KPH | rain 1hr cm | rain 24hr cm | rain mn cm | humidity % | barometer mb |
| 20260504050508 | 13 | 108 | 1.6 | 3.2 | 0.00 | 0.00 | 0.00 | 46 | 1000.4 |
| 20260504050005 | 13 | 119 | 1.6 | 3.2 | 0.00 | 0.00 | 0.00 | 46 | 1000.5 |
| 20260504045500 | 13 | 160 | 3.2 | 4.8 | 0.00 | 0.00 | 0.00 | 45 | 1000.5 |
| 20260504044957 | 13 | 123 | 1.6 | 3.2 | 0.00 | 0.00 | 0.00 | 46 | 1000.7 |
| 20260504044454 | 13 | 118 | 1.6 | 4.8 | 0.00 | 0.00 | 0.00 | 47 | 1000.9 |
| 20260504043952 | 13 | 131 | 3.2 | 3.2 | 0.00 | 0.00 | 0.00 | 49 | 1001.0 |
| 20260504043449 | 13 | 122 | 0.0 | 1.6 | 0.00 | 0.00 | 0.00 | 45 | 1001.1 |
| 20260504042946 | 13 | 135 | 0.0 | 3.2 | 0.00 | 0.00 | 0.00 | 45 | 1001.1 |
| 20260504042442 | 13 | 120 | 1.6 | 3.2 | 0.00 | 0.00 | 0.00 | 48 | 1001.3 |
| 20260504041939 | 13 | 135 | 3.2 | 3.2 | 0.00 | 0.00 | 0.00 | 48 | 1001.2 |
| 20260504041435 | 12 | 145 | 1.6 | 3.2 | 0.00 | 0.00 | 0.00 | 47 | 1001.3 |
| 20260504040931 | 12 | 119 | 0.0 | 1.6 | 0.00 | 0.00 | 0.00 | 48 | 1001.5 |
| 20260504040429 | 12 | 97 | 0.0 | 0.0 | 0.00 | 0.00 | 0.00 | 47 | 1001.6 |
| 20260504035925 | 12 | 138 | 0.0 | 0.0 | 0.00 | 0.00 | 0.00 | 47 | 1001.6 |
| 20260504035423 | 12 | 110 | 0.0 | 1.6 | 0.00 | 0.00 | 0.00 | 47 | 1001.8 |
| 20260504034919 | 13 | 98 | 0.0 | 0.0 | 0.00 | 0.00 | 0.00 | 47 | 1002.0 |
| 20260504034417 | 13 | 107 | 0.0 | 0.0 | 0.00 | 0.00 | 0.00 | 46 | 1002.0 |
| 20260504033914 | 13 | 118 | 0.0 | 1.6 | 0.00 | 0.00 | 0.00 | 45 | 1002.0 |
| 20260504033412 | 13 | 106 | 0.0 | 1.6 | 0.00 | 0.00 | 0.00 | 46 | 1002.2 |
| 20260504032908 | 13 | 90 | 0.0 | 0.0 | 0.00 | 0.00 | 0.00 | 45 | 1002.4 |
| 20260504032405 | 13 | 99 | 0.0 | 0.0 | 0.00 | 0.00 | 0.00 | 43 | 1002.5 |
| 20260504031902 | 13 | 99 | 0.0 | 0.0 | 0.00 | 0.00 | 0.00 | 42 | 1002.5 |
| 20260504031359 | 13 | 99 | 0.0 | 0.0 | 0.00 | 0.00 | 0.00 | 43 | 1002.6 |
| 20260504030855 | 13 | 99 | 0.0 | 1.6 | 0.00 | 0.00 | 0.00 | 43 | 1002.7 |
| 20260504030353 | 13 | 182 | 0.0 | 0.0 | 0.00 | 0.00 | 0.00 | 45 | 1003.0 |
| 20260504025848 | 12 | 182 | 0.0 | 0.0 | 0.00 | 0.00 | 0.00 | 46 | 1002.7 |
| 20260504025346 | 13 | 182 | 0.0 | 0.0 | 0.00 | 0.00 | 0.00 | 46 | 1002.8 |
| 20260504024842 | 13 | 182 | 0.0 | 0.0 | 0.00 | 0.00 | 0.00 | 44 | 1002.8 |
| 20260504024339 | 13 | 182 | 0.0 | 0.0 | 0.00 | 0.00 | 0.00 | 44 | 1003.0 |
| 20260504023836 | 13 | 203 | 0.0 | 0.0 | 0.00 | 0.00 | 0.00 | 44 | 1002.8 |
| 20260504023333 | 13 | 203 | 0.0 | 0.0 | 0.00 | 0.00 | 0.00 | 43 | 1002.8 |
| 20260504022828 | 13 | 203 | 0.0 | 0.0 | 0.00 | 0.00 | 0.00 | 41 | 1003.1 |
| 20260504022325 | 14 | 203 | 0.0 | 0.0 | 0.00 | 0.00 | 0.00 | 40 | 1003.2 |
| 20260504021821 | 13 | 203 | 0.0 | 0.0 | 0.00 | 0.00 | 0.00 | 41 | 1003.1 |
| 20260504021320 | 13 | 203 | 0.0 | 0.0 | 0.00 | 0.00 | 0.00 | 41 | 1003.2 |
| 20260504020816 | 14 | 203 | 0.0 | 0.0 | 0.00 | 0.00 | 0.00 | 40 | 1003.0 |
| 20260504020313 | 14 | 210 | 0.0 | 0.0 | 0.00 | 0.00 | 0.00 | 40 | 1002.8 |
| 20260504015808 | 15 | 210 | 0.0 | 0.0 | 0.00 | 0.00 | 0.00 | 40 | 1003.1 |
| 20260504015305 | 15 | 210 | 0.0 | 0.0 | 0.00 | 0.00 | 0.00 | 39 | 1003.1 |
| 20260504014801 | 15 | 210 | 0.0 | 0.0 | 0.00 | 0.00 | 0.00 | 39 | 1003.1 |
| 20260504014257 | 16 | 210 | 0.0 | 0.0 | 0.00 | 0.00 | 0.00 | 38 | 1003.0 |
| 20260504013755 | 16 | 198 | 0.0 | 0.0 | 0.00 | 0.00 | 0.00 | 37 | 1003.1 |
| 20260504013253 | 16 | 209 | 0.0 | 1.6 | 0.00 | 0.00 | 0.00 | 36 | 1003.2 |
| 20260504012749 | 17 | 228 | 0.0 | 4.8 | 0.00 | 0.00 | 0.00 | 35 | 1003.2 |
| 20260504012247 | 17 | 252 | 3.2 | 3.2 | 0.00 | 0.00 | 0.00 | 34 | 1003.1 |
| 20260504011744 | 17 | 242 | 1.6 | 3.2 | 0.00 | 0.00 | 0.00 | 34 | 1003.1 |
| 20260504011240 | 17 | 221 | 0.0 | 3.2 | 0.00 | 0.00 | 0.00 | 34 | 1003.0 |
| 20260504010736 | 17 | 229 | 0.0 | 3.2 | 0.00 | 0.00 | 0.00 | 34 | 1003.2 |
| 20260504010232 | 17 | 230 | 0.0 | 1.6 | 0.00 | 0.00 | 0.00 | 33 | 1003.1 |
| 20260504005729 | 18 | 229 | 0.0 | 1.6 | 0.00 | 0.00 | 0.00 | 33 | 1003.3 |
| 20260504005227 | 18 | 235 | 0.0 | 0.0 | 0.00 | 0.00 | 0.00 | 33 | 1003.1 |
| 20260504004724 | 18 | 232 | 0.0 | 0.0 | 0.00 | 0.00 | 0.00 | 32 | 1003.2 |
| 20260504004221 | 18 | 277 | 3.2 | 4.8 | 0.00 | 0.00 | 0.00 | 31 | 1003.3 |
| 20260504003717 | 19 | 220 | 1.6 | 3.2 | 0.00 | 0.00 | 0.00 | 31 | 1003.2 |
| 20260504003215 | 19 | 260 | 3.2 | 4.8 | 0.00 | 0.00 | 0.00 | 30 | 1003.2 |
| 20260504002711 | 20 | 272 | 4.8 | 6.4 | 0.00 | 0.00 | 0.00 | 29 | 1003.3 |
| 20260504002208 | 20 | 243 | 9.7 | 11.3 | 0.00 | 0.00 | 0.00 | 28 | 1003.3 |
| 20260504001706 | 20 | 234 | 4.8 | 6.4 | 0.00 | 0.00 | 0.00 | 29 | 1003.6 |
| 20260504001202 | 19 | 232 | 3.2 | 4.8 | 0.00 | 0.00 | 0.00 | 30 | 1003.7 |
| 20260504000659 | 19 | 299 | 1.6 | 3.2 | 0.00 | 0.00 | 0.00 | 30 | 1003.6 |
| 20260504000156 | 18 | 277 | 3.2 | 6.4 | 0.00 | 0.00 | 0.00 | 30 | 1003.5 |
| 20260503235654 | 19 | 246 | 4.8 | 6.4 | 0.00 | 0.00 | 0.00 | 30 | 1003.6 |
| 20260503235151 | 19 | 307 | 3.2 | 11.3 | 0.00 | 0.00 | 0.00 | 30 | 1003.5 |
| 20260503234649 | 19 | 296 | 3.2 | 6.4 | 0.00 | 0.00 | 0.00 | 30 | 1003.4 |
| 20260503234147 | 20 | 295 | 6.4 | 12.9 | 0.00 | 0.00 | 0.00 | 28 | 1003.5 |
| 20260503233643 | 20 | 268 | 6.4 | 12.9 | 0.00 | 0.00 | 0.00 | 28 | 1003.5 |
| 20260503233139 | 21 | 288 | 6.4 | 6.4 | 0.00 | 0.00 | 0.00 | 28 | 1003.6 |
| 20260503232636 | 20 | 296 | 1.6 | 3.2 | 0.00 | 0.00 | 0.00 | 28 | 1003.7 |
| 20260503232134 | 20 | 259 | 9.7 | 12.9 | 0.00 | 0.00 | 0.00 | 27 | 1003.6 |
| 20260503231632 | 20 | 259 | 4.8 | 9.7 | 0.00 | 0.00 | 0.00 | 28 | 1003.8 |
| 20260503231128 | 21 | 285 | 4.8 | 9.7 | 0.00 | 0.00 | 0.00 | 28 | 1003.7 |
| 20260503230625 | 21 | 268 | 3.2 | 9.7 | 0.00 | 0.00 | 0.00 | 27 | 1003.9 |
| 20260503230122 | 21 | 235 | 9.7 | 11.3 | 0.00 | 0.00 | 0.00 | 28 | 1003.7 |
| 20260503225620 | 21 | 249 | 1.6 | 4.8 | 0.00 | 0.00 | 0.00 | 29 | 1003.6 |
| 20260503225119 | 21 | 285 | 4.8 | 17.7 | 0.00 | 0.00 | 0.00 | 28 | 1003.8 |
| 20260503224617 | 21 | 343 | 0.0 | 4.8 | 0.00 | 0.00 | 0.00 | 29 | 1004.0 |
| 20260503224114 | 21 | 267 | 1.6 | 12.9 | 0.00 | 0.00 | 0.00 | 26 | 1004.0 |
| 20260503223612 | 20 | 303 | 6.4 | 14.5 | 0.00 | 0.00 | 0.00 | 27 | 1003.9 |
| 20260503223107 | 21 | 222 | 12.9 | 16.1 | 0.00 | 0.00 | 0.00 | 27 | 1004.0 |
| 20260503222606 | 20 | 244 | 3.2 | 6.4 | 0.00 | 0.00 | 0.00 | 26 | 1003.9 |
| 20260503222103 | 21 | 287 | 9.7 | 12.9 | 0.00 | 0.00 | 0.00 | 26 | 1004.0 |
| 20260503221601 | 21 | 318 | 3.2 | 4.8 | 0.00 | 0.00 | 0.00 | 30 | 1004.1 |
| 20260503221059 | 20 | 284 | 1.6 | 16.1 | 0.00 | 0.00 | 0.00 | 28 | 1004.2 |
| 20260503220555 | 20 | 276 | 3.2 | 16.1 | 0.00 | 0.00 | 0.00 | 28 | 1004.1 |
| 20260503220052 | 20 | 289 | 4.8 | 14.5 | 0.00 | 0.00 | 0.00 | 27 | 1004.2 |
| 20260503215549 | 20 | 318 | 14.5 | 16.1 | 0.00 | 0.00 | 0.00 | 26 | 1004.2 |
| 20260503215046 | 20 | 292 | 11.3 | 16.1 | 0.00 | 0.00 | 0.00 | 26 | 1004.3 |
| 20260503214544 | 20 | 3 | 9.7 | 20.9 | 0.00 | 0.00 | 0.00 | 26 | 1004.5 |
| 20260503214040 | 20 | 239 | 6.4 | 24.1 | 0.00 | 0.00 | 0.00 | 25 | 1004.2 |
| 20260503213539 | 20 | 293 | 12.9 | 16.1 | 0.00 | 0.00 | 0.00 | 25 | 1004.3 |
| 20260503213035 | 20 | 232 | 8.0 | 20.9 | 0.00 | 0.00 | 0.00 | 24 | 1004.3 |
| 20260503212532 | 20 | 322 | 3.2 | 16.1 | 0.00 | 0.00 | 0.00 | 27 | 1004.4 |
| 20260503212030 | 21 | 308 | 8.0 | 16.1 | 0.00 | 0.00 | 0.00 | 24 | 1004.4 |
| 20260503211527 | 21 | 302 | 6.4 | 16.1 | 0.00 | 0.00 | 0.00 | 25 | 1004.5 |
| 20260503211022 | 21 | 300 | 6.4 | 14.5 | 0.00 | 0.00 | 0.00 | 27 | 1004.4 |
| 20260503210519 | 21 | 302 | 1.6 | 11.3 | 0.00 | 0.00 | 0.00 | 26 | 1004.6 |
| 20260503210015 | 21 | 14 | 3.2 | 9.7 | 0.00 | 0.00 | 0.00 | 26 | 1004.4 |
| 20260503205512 | 21 | 283 | 6.4 | 9.7 | 0.00 | 0.00 | 0.00 | 26 | 1004.5 |
| 20260503205008 | 20 | 252 | 0.0 | 9.7 | 0.00 | 0.00 | 0.00 | 28 | 1004.7 |
| 20260503204505 | 20 | 296 | 3.2 | 11.3 | 0.00 | 0.00 | 0.00 | 27 | 1004.7 |
| 20260503204002 | 20 | 1 | 8.0 | 11.3 | 0.00 | 0.00 | 0.00 | 27 | 1004.8 |
| 20260503203459 | 20 | 199 | 9.7 | 12.9 | 0.00 | 0.00 | 0.00 | 24 | 1004.7 |
| 20260503202956 | 20 | 358 | 3.2 | 6.4 | 0.00 | 0.00 | 0.00 | 24 | 1004.6 |
| 20260503202454 | 20 | 26 | 9.7 | 14.5 | 0.00 | 0.00 | 0.00 | 25 | 1004.6 |
| 20260503201952 | 20 | 2 | 12.9 | 25.7 | 0.00 | 0.00 | 0.00 | 25 | 1004.8 |
| 20260503201449 | 20 | 2 | 3.2 | 16.1 | 0.00 | 0.00 | 0.00 | 25 | 1004.8 |
| 20260503200947 | 20 | 349 | 9.7 | 12.9 | 0.00 | 0.00 | 0.00 | 26 | 1005.0 |
| 20260503200443 | 19 | 4 | 9.7 | 14.5 | 0.00 | 0.00 | 0.00 | 24 | 1005.0 |
| 20260503195939 | 19 | 323 | 9.7 | 20.9 | 0.00 | 0.00 | 0.00 | 24 | 1005.1 |
| 20260503195437 | 20 | 344 | 9.7 | 17.7 | 0.00 | 0.00 | 0.00 | 26 | 1005.0 |
| 20260503194933 | 20 | 291 | 11.3 | 16.1 | 0.00 | 0.00 | 0.00 | 22 | 1005.2 |
| 20260503194431 | 19 | 340 | 4.8 | 14.5 | 0.00 | 0.00 | 0.00 | 24 | 1004.9 |
| 20260503193926 | 20 | 336 | 8.0 | 17.7 | 0.00 | 0.00 | 0.00 | 25 | 1004.9 |
| 20260503193421 | 20 | 301 | 8.0 | 11.3 | 0.00 | 0.00 | 0.00 | 26 | 1005.0 |
| 20260503192917 | 20 | 4 | 8.0 | 14.5 | 0.00 | 0.00 | 0.00 | 28 | 1005.2 |
| 20260503192414 | 20 | 51 | 4.8 | 14.5 | 0.00 | 0.00 | 0.00 | 28 | 1005.3 |
| 20260503191910 | 20 | 286 | 12.9 | 20.9 | 0.00 | 0.00 | 0.00 | 29 | 1005.3 |
| 20260503191408 | 20 | 285 | 11.3 | 14.5 | 0.00 | 0.00 | 0.00 | 28 | 1005.4 |
| 20260503190904 | 20 | 44 | 12.9 | 17.7 | 0.00 | 0.00 | 0.00 | 29 | 1005.4 |
| 20260503190401 | 19 | 302 | 1.6 | 11.3 | 0.00 | 0.00 | 0.00 | 29 | 1005.3 |
| 20260503185858 | 19 | 298 | 3.2 | 12.9 | 0.00 | 0.00 | 0.00 | 32 | 1005.5 |
| 20260503185354 | 20 | 281 | 11.3 | 17.7 | 0.00 | 0.00 | 0.00 | 28 | 1005.5 |
| 20260503184854 | 19 | 359 | 3.2 | 14.5 | 0.00 | 0.00 | 0.00 | 30 | 1005.6 |
| 20260503184350 | 19 | 305 | 6.4 | 14.5 | 0.00 | 0.00 | 0.00 | 30 | 1005.6 |
| 20260503183846 | 19 | 57 | 8.0 | 17.7 | 0.00 | 0.00 | 0.00 | 27 | 1005.4 |
| 20260503183343 | 19 | 304 | 4.8 | 12.9 | 0.00 | 0.00 | 0.00 | 27 | 1005.4 |
| 20260503182840 | 19 | 278 | 9.7 | 20.9 | 0.00 | 0.00 | 0.00 | 24 | 1005.5 |
| 20260503182340 | 18 | 286 | 6.4 | 17.7 | 0.00 | 0.00 | 0.00 | 31 | 1005.7 |
| 20260503181836 | 19 | 336 | 6.4 | 16.1 | 0.00 | 0.00 | 0.00 | 27 | 1005.5 |
| 20260503181333 | 19 | 177 | 11.3 | 16.1 | 0.00 | 0.00 | 0.00 | 25 | 1005.9 |
| 20260503180830 | 19 | 325 | 11.3 | 22.5 | 0.00 | 0.00 | 0.00 | 28 | 1005.9 |
| 20260503180328 | 19 | 327 | 9.7 | 24.1 | 0.00 | 0.00 | 0.00 | 28 | 1005.7 |
| 20260503175824 | 18 | 337 | 8.0 | 11.3 | 0.00 | 0.00 | 0.00 | 27 | 1005.8 |
| 20260503175322 | 18 | 332 | 6.4 | 22.5 | 0.00 | 0.00 | 0.00 | 34 | 1005.9 |
| 20260503174817 | 18 | 276 | 8.0 | 22.5 | 0.00 | 0.00 | 0.00 | 37 | 1006.0 |
| 20260503174316 | 18 | 345 | 14.5 | 17.7 | 0.00 | 0.00 | 0.00 | 37 | 1005.9 |
| 20260503173811 | 18 | 309 | 9.7 | 22.5 | 0.00 | 0.00 | 0.00 | 39 | 1006.0 |
| 20260503173307 | 18 | 322 | 3.2 | 11.3 | 0.00 | 0.00 | 0.00 | 38 | 1006.0 |
| 20260503172804 | 18 | 311 | 11.3 | 16.1 | 0.00 | 0.00 | 0.00 | 38 | 1006.0 |
| 20260503172301 | 18 | 291 | 14.5 | 17.7 | 0.00 | 0.00 | 0.00 | 38 | 1006.0 |
| 20260503171758 | 18 | 244 | 8.0 | 12.9 | 0.00 | 0.00 | 0.00 | 40 | 1006.1 |
| 20260503171254 | 18 | 312 | 6.4 | 16.1 | 0.00 | 0.00 | 0.00 | 42 | 1006.1 |
| 20260503170751 | 19 | 337 | 9.7 | 20.9 | 0.00 | 0.00 | 0.00 | 39 | 1006.0 |
| 20260503170248 | 18 | 272 | 9.7 | 14.5 | 0.00 | 0.00 | 0.00 | 41 | 1005.9 |
| 20260503160210 | 17 | 9 | 6.4 | 16.1 | 0.00 | 0.00 | 0.00 | 44 | 1005.9 |
| 20260503150641 | 16 | 18 | 6.4 | 16.1 | 0.00 | 0.00 | 0.00 | 46 | 1005.5 |
| 20260503150136 | 16 | 328 | 6.4 | 17.7 | 0.00 | 0.00 | 0.00 | 48 | 1005.5 |
| 20260503131030 | 13 | 275 | 6.4 | 11.3 | 0.00 | 0.00 | 0.00 | 52 | 1005.2 |
| 20260503130527 | 13 | 248 | 3.2 | 4.8 | 0.00 | 0.00 | 0.00 | 52 | 1005.1 |
| 20260503110418 | 6 | 113 | 0.0 | 0.0 | 0.00 | 0.00 | 0.00 | 81 | 1004.1 |
| 20260503090320 | 10 | 5 | 0.0 | 0.0 | 0.00 | 0.00 | 0.00 | 68 | 1004.6 |
| 20260503081248 | 12 | 147 | 0.0 | 1.6 | 0.00 | 0.00 | 0.00 | 58 | 1004.6 |
| 20260503080743 | 12 | 161 | 0.0 | 0.0 | 0.00 | 0.00 | 0.00 | 57 | 1004.7 |
| 20260503080242 | 12 | 117 | 0.0 | 1.6 | 0.00 | 0.00 | 0.00 | 57 | 1004.6 |
| 20260503072718 | 12 | 90 | 1.6 | 4.8 | 0.00 | 0.00 | 0.00 | 55 | 1004.9 |
| 20260503072214 | 12 | 123 | 1.6 | 3.2 | 0.00 | 0.00 | 0.00 | 54 | 1004.9 |
| 20260503071711 | 12 | 108 | 0.0 | 6.4 | 0.00 | 0.00 | 0.00 | 54 | 1005.0 |
| 20260503071208 | 12 | 162 | 1.6 | 4.8 | 0.00 | 0.00 | 0.00 | 53 | 1005.2 |
| 20260503070705 | 12 | 114 | 1.6 | 4.8 | 0.00 | 0.00 | 0.00 | 53 | 1005.2 |
| 20260503070203 | 12 | 132 | 0.0 | 1.6 | 0.00 | 0.00 | 0.00 | 53 | 1005.4 |